Andalusia, AL

8:53 AM CST on January 23, 2017 (GMT -0600)
Andalusia

Weather History for K79J - March, 2013

Change the Weather History Date:

Tuesday, March 5, 2013

  Actual Average (KCEW) Record (KCEW)
Temperature  
Mean Temperature 60 °F -  
Max Temperature 75 °F 70 °F 82 °F (1976)
Min Temperature 45 °F 47 °F 18 °F (2002)
Degree Days  
Heating Degree Days 4    
Growing Degree Days 10 (Base 50)    
Moisture  
Dew Point 47 °F    
Average Humidity 66    
Maximum Humidity 80    
Minimum Humidity 43    
Precipitation  
Precipitation 0.01 in - - ()
Sea Level Pressure  
Sea Level Pressure 30.01 in    
Wind  
Wind Speed 7 mph (West)    
Max Wind Speed 25 mph    
Max Gust Speed 36 mph    
Visibility 10 miles    
Events      
Averages and records for this station are not official NWS values.
T = Trace of Precipitation, MM = Missing Value Source: NWS Daily Summary

Daily Weather History Graph

Daily Weather History Graph

Search for Another Location

Airport or City:

Trip Planner

Search our weather history database for the weather conditions in past years. The results will help you decide how hot, cold, wet, or windy it might be!

Date:

Astronomy

Mar. 05, 2013 Rise Set
Actual Time 6:07 AM CST 5:46 PM CST
Civil Twilight 5:43 AM CST 6:11 PM CST
Nautical Twilight 5:15 AM CST 6:39 PM CST
Astronomical Twilight 4:46 AM CST 7:07 PM CST
Moon 1:02 AM CST (3/5) 11:42 AM CST (3/5)
Length of Visible Light 12h 28m
Length of Day
11h 39m
Last Quarter, 40% of the Moon is Illuminated
Mar 5
Last Quarter
Mar 11
New
Mar 19
First Quarter
Mar 27
Full
Apr 2
Last Quarter

Hourly Weather History & Observations

Time (CST) Temp. Windchill Dew Point Humidity Pressure Visibility Wind Dir Wind Speed Gust Speed Precip Events Conditions
12:24 AM 53.6 °F - 44.6 °F 72% 30.03 in 10.0 mi Variable 3.5 mph - N/A   Overcast
12:56 AM 54.0 °F - 44.1 °F 69% 30.03 in 10.0 mi Variable 3.5 mph - N/A   Overcast
1:56 AM 55.0 °F - 46.0 °F 72% 30.03 in 10.0 mi SE 4.6 mph - N/A   Overcast
2:42 AM 53.6 °F - 44.6 °F 72% 30.03 in 10.0 mi SE 5.8 mph - N/A   Overcast
2:56 AM 53.1 °F - 45.0 °F 74% 30.02 in 10.0 mi SE 6.9 mph - N/A   Mostly Cloudy
3:56 AM 53.1 °F - 45.0 °F 74% 30.03 in 10.0 mi SE 3.5 mph - N/A   Mostly Cloudy
4:04 AM 53.6 °F - 44.6 °F 72% 30.03 in 10.0 mi SE 4.6 mph - N/A   Mostly Cloudy
4:26 AM 53.6 °F - 44.6 °F 72% 30.03 in 10.0 mi SSE 3.5 mph - N/A   Mostly Cloudy
4:56 AM 53.1 °F - 46.0 °F 77% 30.02 in 10.0 mi SSE 4.6 mph - N/A   Mostly Cloudy
5:56 AM 53.1 °F - 46.0 °F 77% 30.04 in 10.0 mi Calm Calm - N/A   Scattered Clouds
6:56 AM 54.0 °F - 48.0 °F 80% 30.04 in 10.0 mi Calm Calm - N/A   Mostly Cloudy
7:56 AM 57.0 °F - 50.0 °F 77% 30.02 in 9.0 mi Variable 4.6 mph - N/A   Clear
8:56 AM 61.0 °F - 52.0 °F 72% 30.06 in 10.0 mi South 3.5 mph - N/A   Mostly Cloudy
9:56 AM 66.0 °F - 54.0 °F 65% 30.04 in 10.0 mi WSW 5.8 mph - N/A   Mostly Cloudy
10:56 AM 71.1 °F - 55.9 °F 59% 30.01 in 10.0 mi West 10.4 mph 21.9 mph N/A   Overcast
11:56 AM 75.0 °F - 53.1 °F 46% 29.95 in 10.0 mi West 16.1 mph 26.5 mph N/A   Mostly Cloudy
12:56 PM 75.9 °F - 52.0 °F 43% 29.92 in 10.0 mi West 11.5 mph 31.1 mph N/A   Overcast
1:56 PM 75.0 °F - 52.0 °F 44% 29.91 in 10.0 mi West 12.7 mph 24.2 mph N/A   Overcast
2:56 PM 75.9 °F - 54.0 °F 46% 29.87 in 10.0 mi West 15.0 mph 28.8 mph N/A   Mostly Cloudy
3:56 PM 75.0 °F - 55.0 °F 50% 29.86 in 10.0 mi West 15.0 mph 27.6 mph N/A   Scattered Clouds
4:56 PM 66.9 °F - 57.9 °F 73% 29.92 in 10.0 mi NNW 16.1 mph 23.0 mph 0.01 in   Overcast
5:56 PM 63.0 °F - 52.0 °F 67% 29.96 in 10.0 mi NNW 16.1 mph - N/A   Partly Cloudy
6:56 PM 60.1 °F - 48.9 °F 67% 29.99 in 10.0 mi North 17.3 mph 24.2 mph N/A   Partly Cloudy
7:56 PM 54.0 °F - 41.0 °F 62% 30.05 in 10.0 mi North 25.3 mph 35.7 mph N/A   Clear
8:56 PM 50.0 °F - 37.0 °F 61% 30.09 in 10.0 mi North 12.7 mph 23.0 mph N/A   Clear
9:56 PM 48.0 °F - 36.0 °F 63% 30.10 in 10.0 mi North 6.9 mph - N/A   Clear
10:56 PM 46.0 °F 43.9 °F 36.0 °F 68% 30.10 in 10.0 mi NW 4.6 mph - N/A   Clear
11:56 PM 45.0 °F 43.5 °F 36.0 °F 71% 30.09 in 10.0 mi WNW 3.5 mph - N/A   Clear